Weather History for Bozeman, MT

Change the Weather History Date:

Thursday, December 6, 2012

  Actual Average Record
Temperature  
Mean Temperature 28 °F 22 °F  
Max Temperature 33 °F 34 °F 60 °F (1939)
Min Temperature 22 °F 11 °F -32 °F (1972)
Degree Days  
Heating Degree Days 37    
Month to date heating degree days 160  
Since 1 July heating degree days 2056  
Cooling Degree Days 0    
Month to date cooling degree days 0  
Year to date cooling degree days 284  
Moisture  
Dew Point 24 °F    
Average Humidity 76    
Maximum Humidity 92    
Minimum Humidity 59    
Precipitation  
Precipitation 0.11 in 0.02 in 0.33 in (1982)
Month to date precipitation 0.36 0.13  
Year to date precipitation 9.01 13.60  
Snow  
Snow 0.00 in 0.20 in 3.50 in (1982)
Month to date snowfall T 1.4  
Since 1 July snowfall 10.5 8.8  
Snow Depth 0.00 in    
Sea Level Pressure  
Sea Level Pressure 29.97 in    
Wind  
Wind Speed 2 mph (NNW)    
Max Wind Speed 8 mph    
Max Gust Speed 9 mph    
Visibility 4 miles    
Events Fog , Snow    
T = Trace of Precipitation, MM = Missing Value Source: NWS Daily Summary

Daily Weather History Graph

Daily Weather History Graph

Search for Another Location

Airport:

Trip Planner

Search our weather history database for the weather conditions in past years. The results will help you decide how hot, cold, wet, or windy it might be!

Date:

Astronomy

Dec. 06, 2012 Rise Set
Actual Time 7:51 AM MST 4:40 PM MST
Civil Twilight 7:17 AM MST 5:14 PM MST
Nautical Twilight 6:39 AM MST 5:51 PM MST
Astronomical Twilight 6:03 AM MST 6:27 PM MST
Moon No Moon Rise 12:27 PM MST (12/6)
Length of Visible Light 9h 57m
Length of Day
8h 48m
Waning Gibbous, 48% of the Moon is Illuminated
Dec 6
Waning Gibbous
Dec 13
New
Dec 19
First Quarter
Dec 28
Full
Jan 4
Last Quarter

Hourly Weather History & Observations

Time (MST) Temp. Windchill Dew Point Humidity Pressure Visibility Wind Dir Wind Speed Gust Speed Precip Events Conditions
12:56 AM 32.0 °F 27.5 °F 19.9 °F 61% 30.03 in 10.0 mi NW 4.6 mph - N/A   Clear
1:56 AM 28.9 °F - 19.9 °F 69% 30.06 in 10.0 mi Calm Calm - N/A   Clear
2:56 AM 26.1 °F 18.4 °F 21.0 °F 81% 30.08 in 10.0 mi SSW 6.9 mph - N/A   Clear
3:56 AM 26.1 °F 21.9 °F 21.9 °F 84% 30.07 in 10.0 mi NW 3.5 mph - N/A   Clear
4:56 AM 27.0 °F 19.5 °F 21.0 °F 78% 30.07 in 10.0 mi West 6.9 mph - N/A   Clear
5:56 AM 28.0 °F 24.2 °F 19.9 °F 72% 30.07 in 10.0 mi SW 3.5 mph - N/A   Clear
6:56 AM 24.1 °F - 19.0 °F 81% 30.09 in 10.0 mi Calm Calm - N/A   Mostly Cloudy
7:56 AM 24.1 °F - 19.0 °F 81% 30.09 in 10.0 mi Calm Calm - N/A   Mostly Cloudy
8:56 AM 26.1 °F - 21.0 °F 81% 30.09 in 10.0 mi Calm Calm - N/A   Overcast
9:56 AM 30.0 °F 26.5 °F 21.0 °F 69% 30.08 in 10.0 mi SSW 3.5 mph - N/A   Overcast
10:56 AM 30.9 °F 27.5 °F 21.0 °F 67% 30.07 in 10.0 mi NW 3.5 mph - N/A   Overcast
11:56 AM 32.0 °F - 21.9 °F 66% 30.06 in 10.0 mi Calm Calm - N/A   Clear
12:56 PM 33.1 °F - 23.0 °F 66% 30.02 in 10.0 mi Calm Calm - N/A   Scattered Clouds
1:56 PM 33.1 °F 30.0 °F 23.0 °F 66% 30.02 in 10.0 mi NNW 3.5 mph - N/A   Overcast
2:33 PM 33.8 °F - 24.8 °F 70% 29.93 in 7.0 mi Calm Calm - 0.00 in Snow Light Snow
2:43 PM 30.2 °F - 23.0 °F 75% 29.93 in 2.5 mi Calm Calm - 0.00 in Snow Light Snow
2:56 PM 30.9 °F - 24.1 °F 76% 30.04 in 1.8 mi Calm Calm - 0.00 in Snow Light Snow
3:21 PM 30.2 °F - 26.6 °F 86% 29.93 in 1.0 mi Calm Calm - 0.00 in Snow Light Snow
3:30 PM 30.2 °F - 26.6 °F 86% 29.93 in 0.8 mi Calm Calm - 0.00 in Snow Light Snow
3:43 PM 30.2 °F - 26.6 °F 86% 29.93 in 1.0 mi Calm Calm - 0.00 in Snow Light Snow
3:56 PM 30.0 °F - 26.1 °F 85% 30.04 in 1.0 mi Calm Calm - 0.01 in Snow Light Snow
4:16 PM 30.2 °F - 26.6 °F 86% 29.93 in 0.8 mi Calm Calm - 0.00 in Snow Light Snow
4:27 PM 30.2 °F - 26.6 °F 86% 29.92 in 0.8 mi Calm Calm - 0.01 in Snow Light Snow
4:56 PM 28.9 °F - 27.0 °F 92% 30.03 in 1.0 mi Calm Calm - 0.02 in Snow Light Snow
5:13 PM 28.4 °F - 26.6 °F 93% 29.91 in 0.8 mi Calm Calm - N/A Snow Light Snow
5:32 PM 28.4 °F - 26.6 °F 93% 29.91 in 1.0 mi Calm Calm - 0.03 in Snow Light Snow
5:56 PM 28.9 °F - 26.1 °F 89% 30.01 in 1.2 mi Calm Calm - 0.04 in Snow Light Snow
6:28 PM 28.4 °F 24.6 °F 26.6 °F 93% 29.90 in 1.0 mi NNW 3.5 mph - 0.01 in Snow Light Snow
6:52 PM 28.4 °F 24.6 °F 26.6 °F 93% 29.90 in 1.5 mi NNW 3.5 mph - 0.02 in Snow Light Snow
6:56 PM 28.0 °F 24.2 °F 27.0 °F 96% 30.03 in 1.5 mi NNW 3.5 mph - 0.02 in Snow Light Snow
7:05 PM 28.4 °F - 26.6 °F 93% 29.90 in 1.2 mi Calm Calm - 0.01 in Snow Light Snow
7:14 PM 28.4 °F - 26.6 °F 93% 29.90 in 0.8 mi Calm Calm - N/A Snow Light Snow
7:21 PM 28.4 °F - 26.6 °F 93% 29.90 in 1.0 mi Calm Calm - 0.02 in Snow Light Snow
7:27 PM 28.4 °F - 26.6 °F 93% 29.90 in 2.0 mi Calm Calm - 0.02 in Snow Light Snow
7:41 PM 28.4 °F - 26.6 °F 93% 29.90 in 1.5 mi Calm Calm - 0.02 in Snow Light Snow
7:46 PM 28.4 °F - 26.6 °F 93% 29.90 in 2.5 mi Calm Calm - 0.02 in Snow Light Snow
7:54 PM 28.4 °F - 26.6 °F 93% 29.90 in 3.0 mi Calm Calm - 0.02 in Snow Light Snow
7:56 PM 28.0 °F - 26.1 °F 92% 30.03 in 3.0 mi Calm Calm - 0.02 in Snow Light Snow
8:02 PM 28.4 °F - 26.6 °F 93% 29.90 in 2.5 mi Calm Calm - 0.00 in Snow Light Snow
8:22 PM 28.4 °F - 26.6 °F 93% 29.90 in 3.0 mi Calm Calm - 0.00 in Snow Light Snow
8:56 PM 28.0 °F - 26.1 °F 92% 30.02 in 5.0 mi Calm Calm - 0.00 in Snow Light Snow
9:22 PM 28.4 °F - 26.6 °F 93% 29.91 in 1.8 mi Calm Calm - 0.00 in Snow Light Snow
9:39 PM 28.4 °F - 26.6 °F 93% 29.91 in 2.5 mi Calm Calm - 0.00 in Snow Light Snow
9:53 PM 28.4 °F - 26.6 °F 93% 29.91 in 3.0 mi Calm Calm - 0.00 in Snow Light Snow
9:56 PM 27.0 °F - 25.0 °F 92% 30.02 in 3.0 mi Calm Calm - 0.00 in Snow Light Snow
10:02 PM 26.6 °F - 24.8 °F 93% 29.91 in 5.0 mi Calm Calm - 0.00 in Snow Light Snow
10:08 PM 26.6 °F - 24.8 °F 93% 29.92 in 1.2 mi Calm Calm - 0.00 in   Mostly Cloudy
10:11 PM 24.8 °F 19.1 °F 23.0 °F 93% 29.92 in 0.5 mi ENE 4.6 mph - 0.00 in Fog Light Freezing Fog
10:19 PM 21.2 °F 11.7 °F 19.4 °F 93% 29.92 in 5.0 mi NE 8.1 mph - 0.00 in   Mostly Cloudy
10:26 PM 23.0 °F 14.7 °F 21.2 °F 93% 29.92 in 2.0 mi ENE 6.9 mph - 0.00 in   Mostly Cloudy
10:39 PM 24.8 °F 20.5 °F 23.0 °F 93% 29.92 in 7.0 mi NE 3.5 mph - 0.00 in   Overcast
10:56 PM 26.1 °F - 24.1 °F 92% 30.02 in 6.0 mi Calm Calm - 0.00 in   Overcast
11:14 PM 26.6 °F 22.6 °F 24.8 °F 93% 29.91 in 1.5 mi NE 3.5 mph - N/A   Overcast
11:17 PM 26.6 °F - 24.8 °F 93% 29.92 in 0.8 mi Calm Calm - N/A   Overcast
11:24 PM 26.6 °F - 24.8 °F 93% 29.92 in 0.2 mi Calm Calm - N/A Fog Light Freezing Fog
11:56 PM 25.0 °F - 23.0 °F 92% 30.03 in 0.2 mi Calm Calm - N/A Fog Light Freezing Fog